This is the latest recevied weather packets stored in our database for station/object NE8U. If no packets are shown the sender has not sent any weather packets the latest 10 day(s).
| Time | Temp. | Humidity | Pressure | Rain* | Wind** | Luminosity | Snow |
|---|---|---|---|---|---|---|---|
| 1777722909 | 15.56° C | 38% | 1014.6 hPa | 0 mm | - | 0 W/m² | - |
| 1777722604 | 15.56° C | 37% | 1014.5 hPa | 0 mm | - | 0 W/m² | - |
| 1777722301 | 16.11° C | 36% | 1014.6 hPa | 0 mm | - | 0 W/m² | - |
| 1777721998 | 16.67° C | 35% | 1014.5 hPa | 0 mm | - | 0 W/m² | - |
| 1777721695 | 16.67° C | 35% | 1014.5 hPa | 0 mm | - | 0 W/m² | - |
| 1777721394 | 16.67° C | 35% | 1014.6 hPa | 0 mm | - | 0 W/m² | - |
| 1777721091 | 17.22° C | 34% | 1014.6 hPa | 0 mm | - | 0 W/m² | - |
| 1777720789 | 17.22° C | 34% | 1014.6 hPa | 0 mm | - | 0 W/m² | - |
| 1777720486 | 17.78° C | 33% | 1014.8 hPa | 0 mm | - | 0 W/m² | - |
| 1777720183 | 17.78° C | 33% | 1014.6 hPa | 0 mm | - | 0 W/m² | - |
| 1777719881 | 17.78° C | 32% | 1014.8 hPa | 0 mm | - | 0 W/m² | - |
| 1777719578 | 17.78° C | 32% | 1014.8 hPa | 0 mm | - | 0 W/m² | - |
| 1777719275 | 18.33° C | 32% | 1014.9 hPa | 0 mm | - | 0 W/m² | - |
| 1777718973 | 18.33° C | 32% | 1014.9 hPa | 0 mm | - | 0 W/m² | - |
| 1777718670 | 18.33° C | 31% | 1014.9 hPa | 0 mm | - | 0 W/m² | - |
| 1777718367 | 18.33° C | 31% | 1014.9 hPa | 0 mm | - | 0 W/m² | - |
| 1777718065 | 18.33° C | 31% | 1014.8 hPa | 0 mm | - | 0 W/m² | - |
| 1777717761 | 17.78° C | 31% | 1014.8 hPa | 0 mm | - | 0 W/m² | - |
| 1777717458 | 18.89° C | 31% | 1014.6 hPa | 0 mm | - | 0 W/m² | - |
| 1777717155 | 18.89° C | 31% | 1014.5 hPa | 0 mm | - | 0 W/m² | - |
| 1777716854 | 18.33° C | 31% | 1014.5 hPa | 0 mm | - | 0 W/m² | - |
| 1777716551 | 17.78° C | 31% | 1014.3 hPa | 0 mm | - | 0 W/m² | - |
| 1777716251 | 17.78° C | 32% | 1014.5 hPa | 0 mm | - | 0 W/m² | - |
| 1777715947 | 17.78° C | 32% | 1014.4 hPa | 0 mm | - | 0 W/m² | - |
| 1777715645 | 17.78° C | 32% | 1014.6 hPa | 0 mm | - | 0 W/m² | - |
* Rain latest hour (hover to see other rain measurements)
** Current wind speed in m/s (hover to see current wind gust speed)